Skip Page Navigation
NASA JPL Caltech
NASA Logo - Jet Propulsion Laboratory + View the NASA Portal
+ Center for Near-Earth Object Studies
JPL Home Earth Solar System Stars & Galaxies Technology
JPL Solar System Dynamics
BODIES ORBITS EPHEMERIDES TOOLS PHYSICAL DATA DISCOVERY FAQ SITE MAP
JPL Small-Body Database Browser
Search: [ help ]  
134037 (2004 XP3)
Classification: Main-belt Asteroid          SPK-ID: 2134037
Ephemeris | Orbit Diagram | Orbital Elements | Mission Design | Physical Parameters | Discovery Circumstances | Close-Approach Data ]

[ show orbit diagram ]
Orbital Elements at Epoch 2459200.5 (2020-Dec-17.0) TDB
Reference: JPL 23 (heliocentric ecliptic J2000)
 Element Value Uncertainty (1-sigma)   Units 
e .1793416217673868 4.0871e-08  
a 2.694491960285036 1.6809e-08 au
q 2.211257402288333 1.11e-07 au
i 9.826813132994625 6.5079e-06 deg
node 52.38991471332058 2.3851e-05 deg
peri 48.76792142761748 3.0318e-05 deg
M 216.137075016119 1.8433e-05 deg
tp 2459846.094988212321
(2022-Sep-23.59498821)
8.4974e-05 TDB
period 1615.525304955923
4.42
1.5117e-05
4.139e-08
d
yr
n .2228377351290217 2.0852e-09 deg/d
Q 3.17772651828174 1.9823e-08 au
  Orbit Determination Parameters
   # obs. used (total)      532  
   data-arc span      8916 days (24.41 yr)  
   first obs. used      1996-01-17  
   last obs. used      2020-06-15  
   planetary ephem.      DE441  
   SB-pert. ephem.      SB441-N16  
   condition code      0  
   norm. resid. RMS      .56634  
   source      ORB  
   producer      Otto Matic  
   solution date      2021-Apr-13 18:06:38  

Additional Information
 Earth MOID = 1.24144 au 
 Jupiter MOID = 2.06824 au 
 T_jup = 3.326 
[ show covariance matrix ]

Ephemeris | Orbit Diagram | Orbital Elements | Mission Design | Physical Parameters | Discovery Circumstances | Close-Approach Data ]

Physical Parameter Table
Parameter Symbol Value Units Sigma Reference Notes
absolute magnitude H 15.75   n/a E2021B55  

134037 (2004 XP3)          Discovered 2004-Dec-02 by LINEAR at Socorro
Reference: 20060711/Numbers.arcLast Updated: 2006-07-17

[ show close-approach data ]
Alternate Designations
 2004 XP3 = 1996 BG13 
Ephemeris | Orbit Diagram | Orbital Elements | Mission Design | Physical Parameters | Discovery Circumstances | Close-Approach Data ]
ABOUT SSD CREDITS/AWARDS PRIVACY/COPYRIGHT GLOSSARY LINKS
FirstGov 2021-Apr-18 09:59 UT
(server date/time)  
NASA Home Page
Site Manager:   Ryan S. Park
Webmaster  Alan B. Chamberlin